TimeEDT,TemperatureF,Dew PointF,Humidity,Sea Level PressureIn,VisibilityMPH,Wind Direction,Wind SpeedMPH,Gust SpeedMPH,PrecipitationIn,Events,Conditions,WindDirDegrees,DateUTC
12:17 AM,59.0,57.2,94,30.16,7.0,Calm,Calm,-,N/A,,Clear,0,2013-08-19 04:17:00
12:37 AM,59.0,57.2,94,30.16,5.0,Calm,Calm,-,N/A,,Clear,0,2013-08-19 04:37:00
12:56 AM,59.0,55.4,88,30.16,5.0,Calm,Calm,-,N/A,,Scattered Clouds,0,2013-08-19 04:56:00
1:17 AM,60.8,59.0,94,30.16,7.0,Calm,Calm,-,N/A,,Mostly Cloudy,0,2013-08-19 05:17:00
1:37 AM,60.8,59.0,94,30.15,5.0,Calm,Calm,-,N/A,,Overcast,0,2013-08-19 05:37:00
1:56 AM,59.0,57.2,94,30.15,5.0,Calm,Calm,-,N/A,,Mostly Cloudy,0,2013-08-19 05:56:00
2:17 AM,59.0,55.4,88,30.15,7.0,Calm,Calm,-,N/A,,Scattered Clouds,0,2013-08-19 06:17:00
2:37 AM,59.0,55.4,88,30.14,0.8,Calm,Calm,-,N/A,,Mist,0,2013-08-19 06:37:00
2:56 AM,59.0,55.4,88,30.14,0.2,Calm,Calm,-,N/A,Fog,Fog,0,2013-08-19 06:56:00
3:17 AM,57.2,55.4,94,30.14,2.0,Calm,Calm,-,N/A,,Scattered Clouds,0,2013-08-19 07:17:00
3:36 AM,57.2,55.4,94,30.14,0.2,South,3.5,-,N/A,Fog,Fog,180,2013-08-19 07:36:00
3:56 AM,59.0,57.2,94,30.14,0.2,South,3.5,-,N/A,Fog,Fog,170,2013-08-19 07:56:00
4:17 AM,60.8,59.0,94,30.14,0.2,Calm,Calm,-,N/A,Fog,Fog,0,2013-08-19 08:17:00
4:36 AM,60.8,60.8,100,30.15,0.2,Calm,Calm,-,N/A,Fog,Fog,0,2013-08-19 08:36:00
4:56 AM,62.6,60.8,94,30.15,0.2,SW,3.5,-,N/A,Fog,Fog,220,2013-08-19 08:56:00
5:17 AM,62.6,60.8,94,30.15,0.2,SW,3.5,-,N/A,Fog,Fog,220,2013-08-19 09:17:00
5:36 AM,62.6,60.8,94,30.15,0.2,Calm,Calm,-,N/A,Fog,Fog,0,2013-08-19 09:36:00
5:56 AM,62.6,60.8,94,30.15,0.2,Calm,Calm,-,N/A,Fog,Fog,0,2013-08-19 09:56:00
6:17 AM,62.6,60.8,94,30.15,0.2,Calm,Calm,-,N/A,Fog,Fog,0,2013-08-19 10:17:00
6:36 AM,62.6,60.8,94,30.16,0.2,Calm,Calm,-,N/A,Fog,Fog,0,2013-08-19 10:36:00
6:56 AM,62.6,60.8,94,30.16,0.5,Calm,Calm,-,N/A,Fog,Fog,0,2013-08-19 10:56:00
7:17 AM,62.6,60.8,94,30.16,0.2,Calm,Calm,-,N/A,Fog,Fog,0,2013-08-19 11:17:00
7:36 AM,62.6,60.8,94,30.16,0.2,Calm,Calm,-,N/A,Fog,Fog,0,2013-08-19 11:36:00
7:57 AM,62.6,60.8,94,30.17,0.5,Calm,Calm,-,N/A,Fog,Fog,0,2013-08-19 11:57:00
8:17 AM,62.6,60.8,94,30.17,0.8,Calm,Calm,-,N/A,,Overcast,0,2013-08-19 12:17:00
8:36 AM,62.6,60.8,94,30.17,0.8,Calm,Calm,-,N/A,,Overcast,0,2013-08-19 12:36:00
8:57 AM,62.6,60.8,94,30.17,2.0,Calm,Calm,-,N/A,,Overcast,0,2013-08-19 12:57:00
9:17 AM,64.4,62.6,94,30.17,2.0,Calm,Calm,-,N/A,,Overcast,0,2013-08-19 13:17:00
9:36 AM,64.4,62.6,94,30.17,3.0,Calm,Calm,-,N/A,,Overcast,0,2013-08-19 13:36:00
9:57 AM,64.4,62.6,94,30.17,5.0,Calm,Calm,-,N/A,,Overcast,0,2013-08-19 13:57:00
10:17 AM,68.0,62.6,83,30.16,5.0,Calm,Calm,-,N/A,,Mostly Cloudy,0,2013-08-19 14:17:00
10:36 AM,69.8,62.6,78,30.16,7.0,Calm,Calm,-,N/A,,Scattered Clouds,0,2013-08-19 14:36:00
10:57 AM,71.6,62.6,73,30.16,10.0,Calm,Calm,-,N/A,,Clear,0,2013-08-19 14:57:00
11:17 AM,71.6,62.6,73,30.16,10.0,Calm,Calm,-,N/A,,Clear,0,2013-08-19 15:17:00
11:36 AM,73.4,60.8,65,30.16,10.0,Calm,Calm,-,N/A,,Clear,0,2013-08-19 15:36:00
11:57 AM,75.2,57.2,53,30.16,10.0,Calm,Calm,-,N/A,,Clear,0,2013-08-19 15:57:00
12:17 PM,77.0,59.0,54,30.16,10.0,Calm,Calm,-,N/A,,Clear,0,2013-08-19 16:17:00
12:36 PM,77.0,55.4,47,30.15,10.0,Calm,Calm,-,N/A,,Clear,0,2013-08-19 16:36:00
12:57 PM,77.0,59.0,54,30.15,10.0,NW,3.5,-,N/A,,Clear,310,2013-08-19 16:57:00
1:17 PM,78.8,59.0,51,30.14,10.0,NW,4.6,-,N/A,,Clear,310,2013-08-19 17:17:00
1:36 PM,78.8,55.4,44,30.14,10.0,Calm,Calm,-,N/A,,Clear,0,2013-08-19 17:36:00
1:57 PM,78.8,55.4,44,30.14,10.0,Calm,Calm,-,N/A,,Clear,0,2013-08-19 17:57:00
2:17 PM,77.0,55.4,47,30.14,10.0,NNE,4.6,-,N/A,,Clear,20,2013-08-19 18:17:00
2:36 PM,78.8,55.4,44,30.14,10.0,NE,3.5,-,N/A,,Clear,50,2013-08-19 18:36:00
2:57 PM,78.8,55.4,44,30.14,10.0,Calm,Calm,-,N/A,,Scattered Clouds,0,2013-08-19 18:57:00
3:17 PM,80.6,55.4,42,30.13,10.0,West,4.6,-,N/A,,Scattered Clouds,260,2013-08-19 19:17:00
3:36 PM,78.8,55.4,44,30.13,10.0,WNW,3.5,-,N/A,,Scattered Clouds,300,2013-08-19 19:36:00
3:57 PM,78.8,55.4,44,30.12,10.0,Calm,Calm,-,N/A,,Clear,0,2013-08-19 19:57:00
4:17 PM,80.6,55.4,42,30.12,10.0,Calm,Calm,-,N/A,,Clear,0,2013-08-19 20:17:00
4:36 PM,80.6,57.2,45,30.12,10.0,West,3.5,-,N/A,,Clear,280,2013-08-19 20:36:00
4:57 PM,78.8,55.4,44,30.12,10.0,Calm,Calm,-,N/A,,Clear,0,2013-08-19 20:57:00
5:16 PM,78.8,55.4,44,30.11,10.0,WNW,3.5,-,N/A,,Clear,290,2013-08-19 21:16:00
5:36 PM,78.8,57.2,47,30.11,10.0,West,3.5,-,N/A,,Clear,280,2013-08-19 21:36:00
5:57 PM,78.8,57.2,47,30.11,10.0,Calm,Calm,-,N/A,,Clear,0,2013-08-19 21:57:00
6:16 PM,77.0,55.4,47,30.11,10.0,Calm,Calm,-,N/A,,Clear,0,2013-08-19 22:16:00
6:37 PM,77.0,59.0,54,30.10,10.0,Calm,Calm,-,N/A,,Clear,0,2013-08-19 22:37:00
6:57 PM,77.0,59.0,54,30.10,10.0,Calm,Calm,-,N/A,,Clear,0,2013-08-19 22:57:00
7:16 PM,77.0,59.0,54,30.10,10.0,Calm,Calm,-,N/A,,Clear,0,2013-08-19 23:16:00
7:37 PM,73.4,62.6,69,30.10,10.0,Calm,Calm,-,N/A,,Clear,0,2013-08-19 23:37:00
7:56 PM,71.6,62.6,73,30.10,10.0,Calm,Calm,-,N/A,,Clear,0,2013-08-19 23:56:00
8:16 PM,68.0,62.6,83,30.10,10.0,Calm,Calm,-,N/A,,Clear,0,2013-08-20 00:16:00
8:37 PM,66.2,62.6,88,30.10,10.0,Calm,Calm,-,N/A,,Clear,0,2013-08-20 00:37:00
8:56 PM,64.4,60.8,88,30.10,10.0,Calm,Calm,-,N/A,,Clear,0,2013-08-20 00:56:00
9:16 PM,62.6,60.8,94,30.10,10.0,Calm,Calm,-,N/A,,Clear,0,2013-08-20 01:16:00
9:37 PM,62.6,60.8,94,30.11,10.0,Calm,Calm,-,N/A,,Clear,0,2013-08-20 01:37:00
9:56 PM,62.6,59.0,88,30.12,10.0,Calm,Calm,-,N/A,,Clear,0,2013-08-20 01:56:00
10:17 PM,60.8,59.0,94,30.12,10.0,Calm,Calm,-,N/A,,Clear,0,2013-08-20 02:17:00
10:37 PM,60.8,59.0,94,30.12,10.0,Calm,Calm,-,N/A,,Clear,0,2013-08-20 02:37:00
10:56 PM,60.8,59.0,94,30.12,10.0,Calm,Calm,-,N/A,,Clear,0,2013-08-20 02:56:00
11:16 PM,60.8,57.2,88,30.12,10.0,Calm,Calm,-,N/A,,Clear,0,2013-08-20 03:16:00
11:37 PM,59.0,57.2,94,30.13,10.0,Calm,Calm,-,N/A,,Clear,0,2013-08-20 03:37:00
11:56 PM,59.0,55.4,88,30.13,10.0,Calm,Calm,-,N/A,,Clear,0,2013-08-20 03:56:00